Location: Monrovia
(34.7865°N, 86.7139°W)
Time: 15:11:15
(UTC+00:00)

Cosmos 2123 Rocket - Pass Details

Date: 14 July 2020
Orbit: 960 x 993 km, 82.9° (Epoch: 13 August)

Event Time Altitude Azimuth Distance (km) Brightness Sun altitude
Rises 06:00:35 0° 353° (N) 3,652 8.0 -33.6°
Reaches altitude 10° 06:03:05 10° 352° (N) 2,701 7.1 -33.6°
Enters shadow 06:08:03 60° 346° (NNW) 1,092 4.3 -33.5°
